TimeCST,TemperatureF,Dew PointF,Humidity,Sea Level PressureIn,VisibilityMPH,Wind Direction,Wind SpeedMPH,Gust SpeedMPH,PrecipitationIn,Events,Conditions,WindDirDegrees,DateUTC
12:56 AM,34.0,28.0,79,30.15,10.0,WSW,8.1,-,N/A,,Overcast,250,2013-01-17 06:56:00
1:03 AM,33.8,28.4,81,30.11,10.0,West,9.2,-,N/A,,Overcast,260,2013-01-17 07:03:00
1:21 AM,35.6,26.6,70,30.12,10.0,West,8.1,-,N/A,,Overcast,260,2013-01-17 07:21:00
1:56 AM,34.0,28.0,79,30.18,10.0,West,8.1,-,N/A,,Overcast,280,2013-01-17 07:56:00
2:38 AM,32.0,28.4,87,30.13,10.0,West,6.9,-,N/A,,Overcast,280,2013-01-17 08:38:00
2:56 AM,32.0,28.0,85,30.18,10.0,NW,8.1,-,N/A,,Overcast,310,2013-01-17 08:56:00
3:56 AM,34.9,30.0,82,30.19,10.0,NNW,13.8,-,N/A,,Mostly Cloudy,330,2013-01-17 09:56:00
4:09 AM,33.8,30.2,87,30.15,10.0,NNW,13.8,-,N/A,,Scattered Clouds,340,2013-01-17 10:09:00
4:56 AM,32.9,30.0,89,30.22,9.0,North,11.5,-,N/A,,Clear,350,2013-01-17 10:56:00
5:56 AM,32.0,29.1,89,30.25,10.0,North,16.1,-,N/A,,Scattered Clouds,350,2013-01-17 11:56:00
6:39 AM,30.2,28.4,93,30.24,10.0,North,15.0,-,N/A,,Mostly Cloudy,360,2013-01-17 12:39:00
6:48 AM,30.2,28.4,93,30.24,10.0,North,13.8,-,N/A,,Mostly Cloudy,360,2013-01-17 12:48:00
6:56 AM,30.0,28.0,92,30.29,10.0,North,13.8,-,N/A,,Mostly Cloudy,360,2013-01-17 12:56:00
7:07 AM,30.2,28.4,93,30.24,9.0,North,13.8,-,N/A,,Scattered Clouds,10,2013-01-17 13:07:00
7:56 AM,29.1,25.2,85,30.32,10.0,NNE,13.8,-,N/A,,Clear,20,2013-01-17 13:56:00
8:56 AM,29.1,22.1,75,30.35,10.0,North,20.7,-,N/A,,Clear,350,2013-01-17 14:56:00
9:56 AM,30.0,22.1,72,30.37,10.0,North,18.4,-,N/A,,Clear,360,2013-01-17 15:56:00
10:56 AM,31.1,21.0,66,30.37,10.0,North,13.8,-,N/A,,Clear,360,2013-01-17 16:56:00
11:56 AM,32.0,19.0,59,30.38,10.0,NNW,16.1,-,N/A,,Clear,340,2013-01-17 17:56:00
12:56 PM,32.9,19.0,57,30.36,10.0,NNW,16.1,-,N/A,,Clear,330,2013-01-17 18:56:00
1:56 PM,32.9,18.1,55,30.36,10.0,NNW,19.6,-,N/A,,Clear,330,2013-01-17 19:56:00
2:56 PM,32.9,19.0,57,30.38,10.0,NNW,16.1,-,N/A,,Clear,330,2013-01-17 20:56:00
3:56 PM,32.0,18.1,57,30.40,10.0,NNW,13.8,-,N/A,,Clear,330,2013-01-17 21:56:00
4:56 PM,29.1,18.1,64,30.42,10.0,NNW,18.4,-,N/A,,Clear,340,2013-01-17 22:56:00
5:56 PM,27.1,18.1,69,30.45,10.0,NW,6.9,-,N/A,,Clear,320,2013-01-17 23:56:00
6:56 PM,25.2,17.1,71,30.47,10.0,NW,5.8,-,N/A,,Clear,310,2013-01-18 00:56:00
7:56 PM,25.2,17.1,71,30.48,10.0,NW,4.6,-,N/A,,Clear,320,2013-01-18 01:56:00
8:56 PM,22.1,17.1,81,30.49,10.0,WSW,3.5,-,N/A,,Clear,250,2013-01-18 02:56:00
9:56 PM,21.0,17.1,85,30.49,10.0,WSW,4.6,-,N/A,,Clear,250,2013-01-18 03:56:00
10:56 PM,21.0,17.1,85,30.49,10.0,SW,4.6,-,N/A,,Clear,230,2013-01-18 04:56:00
11:56 PM,21.0,17.1,85,30.50,10.0,WSW,6.9,-,N/A,,Clear,240,2013-01-18 05:56:00